GFSGL_850_spd_021.txt.gz
Wind_Speed
19 14 12 10 5 4 1 3 9 10 7 6 6 6 6 5 2 2 2 6 6 5 3 7 8 6 6 8 12 18 21 22 23 19 19 14 16 30 41 45 41 43 40
19 13 12 8 7 7 4 6 12 11 12 6 3 2 5 8 6 4 3 9 9 5 3 7 4 6 7 6 15 20 20 21 22 30 26 28 34 37 46 44 46 42 37
17 13 10 8 8 6 8 7 8 14 11 6 2 1 3 4 3 5 7 3 6 3 6 4 6 7 8 10 17 19 24 24 27 30 36 38 40 41 43 41 41 36 32
15 11 8 7 6 7 10 11 10 11 9 4 3 2 1 4 4 5 6 3 3 7 2 3 9 9 9 10 11 15 26 31 33 34 40 43 45 46 46 40 40 31 28
16 9 5 6 6 10 10 14 11 9 8 5 3 2 2 5 3 7 7 7 7 9 8 10 11 12 9 13 9 16 29 36 38 45 44 45 42 43 39 36 38 30 26
16 8 5 4 7 9 13 11 12 9 8 5 7 3 2 2 5 6 7 9 10 10 12 12 13 11 12 9 10 20 29 38 44 45 45 45 45 37 36 33 31 31 27
13 8 8 10 10 12 12 12 11 9 8 8 8 6 2 3 5 5 6 9 11 13 11 10 15 14 14 12 15 26 37 32 38 46 44 43 39 34 35 33 35 32 31
13 11 12 12 10 14 12 11 11 12 12 10 9 8 4 2 2 4 6 9 14 12 10 12 16 18 16 20 28 32 35 42 38 41 32 30 36 29 27 31 32 26 24
15 16 16 13 14 14 11 8 8 10 11 12 12 9 4 5 5 7 8 12 15 12 12 14 16 21 18 24 33 35 35 33 28 24 28 29 28 27 27 31 26 24 25
20 18 17 12 14 12 10 9 6 9 9 11 12 8 4 6 8 9 9 12 15 15 13 14 17 19 19 24 29 28 30 30 29 27 26 26 26 27 27 20 20 20 21
20 15 17 15 13 13 11 8 12 10 9 12 11 8 6 7 10 12 12 11 16 15 15 18 17 17 18 20 25 24 25 31 30 30 28 29 29 25 25 18 18 13 18
22 21 21 18 17 12 9 12 10 9 10 9 9 10 12 12 11 14 13 13 14 13 14 18 18 19 18 21 23 22 23 31 33 29 28 28 26 24 26 18 16 17 12
23 20 22 17 13 10 14 12 10 9 11 12 11 12 13 16 15 18 17 13 14 14 20 21 21 19 19 20 20 28 25 32 36 28 23 26 26 20 23 19 17 18 17
23 23 23 17 15 10 11 13 12 11 12 11 12 13 15 18 19 20 17 15 15 21 23 23 22 21 20 20 25 28 29 29 30 26 24 21 21 24 25 21 18 16 16
27 24 23 19 17 13 12 14 10 7 8 11 9 11 14 18 22 21 19 19 21 24 26 24 25 22 23 24 25 26 26 24 22 20 19 19 21 23 26 25 21 18 19
28 27 25 22 20 17 13 15 14 11 8 8 7 8 10 11 21 23 21 20 21 24 24 23 22 21 23 24 27 27 25 23 20 18 19 20 21 23 26 26 24 23 22
31 29 27 25 23 23 19 18 15 16 9 9 11 11 8 8 17 24 23 22 21 21 23 22 20 21 23 29 28 27 24 21 19 21 21 20 22 22 22 24 24 25 25
30 31 29 26 24 25 21 20 19 17 16 14 11 13 11 11 11 24 25 24 23 22 22 23 21 20 21 25 26 23 18 19 22 23 27 25 27 26 25 26 28 28 25
29 31 29 26 26 25 25 23 22 21 22 20 20 17 16 16 14 17 22 25 27 27 26 25 23 23 24 23 22 23 22 23 25 28 23 26 28 28 28 25 25 25 26
33 31 29 26 28 25 24 26 27 24 23 22 24 24 24 24 24 25 26 26 27 29 30 28 27 25 25 25 26 27 26 27 28 26 32 30 26 28 29 28 28 30 32
34 33 31 29 28 30 29 27 27 29 27 27 23 21 27 31 30 29 29 31 32 32 32 32 30 30 30 30 30 28 31 32 31 32 32 30 29 35 34 32 31 33 33
35 34 32 30 32 28 30 29 28 29 29 28 28 26 23 23 27 32 32 32 32 33 32 33 34 36 36 35 31 32 34 31 32 33 33 32 31 32 33 35 34 31 32
37 36 33 30 29 33 29 32 32 30 31 31 29 30 29 30 28 28 27 27 32 34 34 36 35 33 31 34 39 37 33 34 36 33 34 35 35 35 34 34 33 36 34
19 33 35 32 27 28 36 29 36 34 32 32 32 33 32 32 32 31 30 28 26 26 28 34 38 41 38 36 33 33 35 37 35 33 33 34 35 35 34 35 35 36 35
10 14 9 35 36 32 29 38 31 36 37 36 36 37 37 35 34 35 33 32 32 30 28 27 30 31 31 34 40 41 40 36 33 33 35 37 37 35 35 35 35 36 37
9 6 7 4 25 39 36 34 40 37 37 40 38 39 40 40 41 39 38 37 37 36 35 33 30 30 29 28 28 27 31 37 39 38 36 36 37 36 35 35 34 36 36

GFSGL_850_spd_024.txt.gz
Wind_Speed
19 15 14 12 7 5 3 6 7 9 8 9 6 4 2 2 4 4 6 6 8 9 7 7 11 13 14 15 14 18 20 18 20 18 15 12 15 26 35 35 29 21 26
18 16 14 9 6 4 3 5 11 11 11 6 2 2 4 6 4 5 7 9 9 8 9 10 11 10 10 13 16 20 23 19 20 24 17 18 21 23 26 32 38 41 47
18 16 11 7 6 4 6 7 8 9 10 5 2 2 4 5 5 4 5 7 13 12 10 11 11 10 11 12 17 22 21 21 25 28 28 21 27 32 43 44 40 36 37
17 14 9 8 8 5 10 7 14 15 9 5 4 2 4 6 5 6 5 3 6 11 9 10 10 10 9 9 10 17 23 24 26 29 30 36 38 42 46 45 43 39 38
16 13 8 5 5 10 13 12 13 10 7 6 4 2 2 5 6 7 5 3 7 9 5 9 10 8 8 10 9 20 24 29 33 35 40 42 41 40 44 42 37 35 29
16 12 6 6 10 12 11 14 12 11 7 8 5 1 3 4 6 6 5 6 9 9 10 13 14 16 16 9 10 13 26 33 36 40 44 46 43 46 42 38 39 35 28
18 10 7 8 10 13 13 11 12 9 9 7 6 4 4 5 5 4 4 6 9 11 9 12 14 13 11 13 14 25 28 33 32 36 46 47 48 42 38 36 31 30 33
16 11 11 9 13 14 12 12 11 10 10 10 7 5 5 6 3 3 6 9 10 8 9 11 11 12 12 17 24 30 28 31 32 38 47 44 39 33 33 32 32 30 29
16 15 12 12 16 15 12 13 11 12 13 11 10 8 6 3 1 4 7 10 9 10 11 12 13 14 20 23 29 29 35 37 35 36 38 31 33 32 27 29 29 30 29
18 15 13 14 16 14 10 9 9 11 12 12 11 7 4 4 5 6 7 10 11 14 15 13 14 19 22 25 27 30 31 35 32 35 31 27 26 23 25 26 28 27 26
20 12 16 15 13 12 10 9 8 10 11 12 11 8 5 7 7 8 8 7 9 14 18 20 18 20 22 25 27 28 26 33 25 26 32 26 25 25 27 23 19 16 19
22 17 18 16 13 11 9 10 10 8 8 9 11 10 9 9 10 10 9 9 8 9 19 20 20 19 24 23 23 27 27 27 27 28 28 28 29 30 23 19 17 13 12
25 21 20 18 15 11 9 14 12 9 8 7 9 10 13 11 11 12 11 11 8 10 18 21 22 20 21 23 21 24 27 27 28 28 30 30 27 24 20 17 15 14 13
28 24 23 18 13 8 10 10 9 9 9 7 9 11 12 14 15 14 12 13 12 17 20 22 22 19 21 23 23 21 28 27 26 29 30 26 21 21 22 19 17 16 16
29 25 24 20 16 10 11 12 10 7 5 4 6 8 13 16 16 14 12 17 19 20 22 22 23 24 25 23 25 26 28 31 28 25 24 24 23 22 23 23 21 19 19
30 27 25 22 19 12 12 14 11 9 6 5 3 3 8 11 16 13 13 15 21 23 22 22 22 22 25 27 29 29 27 31 27 22 22 21 22 23 24 25 24 22 21
30 27 26 23 22 17 15 16 13 11 10 10 10 7 6 12 16 15 17 16 20 22 22 21 20 20 21 24 26 27 28 27 24 23 22 22 22 23 24 25 26 25 24
26 26 26 25 22 20 17 17 15 13 12 12 13 11 9 9 16 19 20 20 22 22 20 19 18 18 21 22 25 25 25 25 24 22 20 19 20 21 24 25 26 26 26
27 30 28 26 23 20 19 18 19 17 15 13 13 15 15 14 15 21 23 25 26 24 23 22 20 20 21 23 26 26 25 24 22 21 21 22 24 27 28 29 29 27 26
30 27 29 27 25 23 21 23 22 21 21 20 19 18 19 22 21 25 27 28 29 28 25 25 25 24 24 25 27 27 26 24 23 23 24 26 25 25 28 31 33 32 30
30 29 28 28 27 26 26 27 27 27 26 26 23 22 23 25 25 26 27 30 31 31 31 30 29 30 29 28 28 29 30 30 29 29 30 30 32 35 31 30 31 32 33
34 32 33 31 29 29 27 28 30 30 29 28 27 27 26 28 29 30 30 30 31 31 31 33 33 33 33 33 33 34 36 35 33 33 34 33 33 34 34 35 36 38 39
32 35 36 35 33 32 29 28 32 32 33 33 30 29 32 32 31 30 30 32 33 33 32 34 36 37 38 38 38 37 37 39 40 37 35 34 36 37 38 38 38 41 42
14 22 31 38 38 33 32 33 30 32 34 35 35 34 32 33 33 32 30 29 29 30 32 35 37 38 39 40 42 45 45 43 41 38 37 41 43 41 40 40 40 40 39
9 8 7 22 32 37 35 34 35 35 34 36 39 38 36 34 35 34 33 32 32 31 32 32 32 33 36 38 40 41 41 40 42 44 45 44 42 38 37 39 40 40 40
5 7 9 7 3 23 32 37 38 37 40 38 37 41 41 39 38 37 36 35 34 34 33 33 33 33 31 30 31 33 34 37 40 40 38 37 39 39 40 41 41 41 40

GFSGL_850_spd_030.txt.gz
Wind_Speed
20 20 19 17 16 15 14 12 9 8 7 10 8 7 4 0 4 5 7 9 11 10 8 7 6 7 9 11 12 13 11 11 11 12 12 9 9 9 13 15 17 20 23
20 17 16 15 12 11 10 9 9 10 11 11 8 4 1 4 5 7 9 11 14 13 11 9 6 8 9 9 10 10 13 13 10 16 19 16 11 11 18 25 26 26 24
18 16 14 13 10 9 8 7 12 13 14 9 5 3 2 5 6 8 11 12 11 12 12 9 8 9 9 9 9 10 13 15 12 20 21 21 18 21 29 25 25 25 27
17 16 14 11 8 7 8 10 14 13 11 5 4 2 5 6 8 9 9 6 8 11 9 8 9 9 8 8 9 10 13 18 15 21 21 21 21 27 30 30 33 37 34
19 16 12 11 8 6 9 10 14 14 8 5 4 1 3 6 10 8 7 6 7 10 10 9 8 7 8 7 9 16 19 20 21 25 26 27 33 35 24 33 41 37 32
20 16 13 9 6 7 9 11 18 13 7 6 4 2 4 8 9 7 6 8 6 7 7 8 10 9 7 7 5 15 21 22 24 29 27 30 34 33 31 38 42 39 35
18 15 12 10 8 13 14 18 14 11 7 6 3 0 4 8 7 5 5 7 7 7 7 11 11 10 10 11 13 17 17 21 19 22 27 29 33 31 44 46 39 38 39
15 13 10 9 11 14 16 14 13 10 8 6 4 1 4 6 6 5 5 6 6 8 6 6 12 14 10 12 18 23 22 19 18 21 22 24 26 42 40 40 38 35 32
15 12 11 10 12 13 15 15 13 9 9 6 4 1 3 4 4 5 6 5 7 9 9 8 9 12 13 17 21 23 23 22 16 16 16 24 34 35 36 34 31 29 30
13 11 11 10 13 12 11 12 9 8 6 6 4 2 2 2 4 5 5 5 10 11 9 8 11 13 11 20 24 25 27 22 19 20 23 31 35 30 28 23 21 27 31
13 10 10 9 12 11 10 10 8 7 8 8 6 3 0 3 4 7 6 6 10 13 14 17 17 16 15 19 21 23 23 22 20 26 32 36 27 23 24 20 22 23 22
14 11 9 12 13 11 8 8 7 6 7 8 7 5 3 5 6 7 7 6 9 14 18 22 20 14 14 19 20 20 20 23 30 32 36 29 25 21 19 18 19 17 15
14 13 12 13 12 10 8 5 6 6 5 5 7 7 6 6 8 10 8 8 12 16 20 22 22 18 18 19 18 20 26 31 32 32 31 25 25 22 21 20 18 18 14
16 14 12 12 10 9 8 5 5 3 3 2 5 7 8 8 9 11 11 10 16 19 21 22 23 21 20 25 24 22 27 30 29 26 25 25 23 21 22 21 19 18 19
17 16 14 12 10 7 7 6 4 4 4 5 3 4 7 7 9 8 9 10 18 21 22 22 23 23 22 21 22 20 21 24 22 21 22 24 24 25 22 20 18 18 18
18 17 16 14 11 8 6 9 8 5 6 6 6 5 7 9 9 10 10 9 14 21 23 22 21 21 21 22 22 22 20 20 21 22 22 24 25 23 20 18 18 18 17
17 15 17 17 13 10 8 12 9 8 5 5 5 5 7 8 10 9 11 12 12 17 22 22 23 22 22 22 23 22 21 20 21 21 23 24 23 21 19 18 17 18 19
18 14 15 17 15 12 9 9 10 8 4 2 5 5 7 9 9 10 12 14 14 14 16 19 20 21 23 22 21 22 23 20 21 23 25 24 22 20 20 20 20 21 21
20 17 15 19 17 15 10 10 9 8 3 2 7 6 6 9 11 11 10 12 14 14 13 11 13 17 18 19 22 21 22 22 22 25 26 26 24 23 23 22 22 21 22
19 17 14 15 18 19 16 12 11 10 8 6 5 7 6 6 10 13 13 14 15 14 13 13 11 10 10 13 16 20 22 24 28 28 27 26 25 25 24 23 22 22 22
21 19 18 16 15 18 19 17 14 12 10 10 8 7 6 6 3 6 10 13 15 16 17 15 14 14 14 15 17 20 23 24 26 27 28 29 28 28 25 24 24 25 26
19 18 19 18 17 16 19 19 17 14 13 12 10 11 11 12 12 11 10 9 12 16 18 19 19 18 18 19 19 21 24 26 28 29 29 29 28 28 28 29 29 30 30
16 18 16 17 19 20 19 19 21 18 15 14 13 14 14 15 15 15 15 14 14 14 15 19 22 23 24 24 24 24 25 26 27 28 31 32 33 33 33 34 35 35 36
10 15 16 15 15 17 20 21 21 22 21 16 15 15 16 17 17 17 16 18 19 20 20 20 21 23 25 27 28 30 31 30 31 32 32 34 36 37 38 39 39 40 40
8 8 10 11 13 13 14 15 17 20 22 24 25 25 25 24 24 23 23 24 23 24 23 23 25 25 26 26 28 31 33 33 35 36 37 38 40 41 42 43 44 45 45
15 14 11 6 4 5 10 10 11 12 14 18 20 23 24 25 24 23 22 23 24 26 28 30 29 29 28 29 29 30 31 32 33 36 39 42 44 47 48 50 50 51 51

GFSGL_850_spd_033.txt.gz
Wind_Speed
24 24 23 22 20 18 16 15 14 12 10 8 10 10 8 5 4 6 8 10 12 12 14 12 10 9 11 12 14 13 10 9 11 13 12 9 8 11 16 16 17 18 19
24 24 22 19 18 17 16 13 12 11 11 12 12 9 5 2 4 6 7 9 13 13 14 12 9 10 11 12 13 13 12 10 10 13 16 12 10 10 16 20 20 20 21
24 22 20 18 15 14 13 12 12 14 15 14 9 5 3 2 5 6 8 11 12 12 14 15 10 10 12 12 13 13 13 13 11 17 21 18 16 16 22 23 26 28 22
22 20 18 17 16 13 12 13 16 16 15 11 7 5 1 3 5 7 9 7 7 11 12 13 11 10 10 10 11 12 15 16 16 24 21 21 21 22 28 33 32 31 39
20 20 19 16 13 11 12 16 17 17 12 9 7 3 1 4 6 6 4 6 9 13 13 11 11 10 11 10 11 14 18 20 20 25 26 25 28 36 32 32 37 40 35
22 19 16 14 11 12 13 16 16 15 10 8 6 2 3 6 6 4 4 6 8 10 11 11 12 12 11 10 11 16 20 21 24 26 28 27 33 29 34 31 35 36 33
19 16 14 13 12 13 12 18 19 13 10 7 4 1 4 6 5 3 5 6 7 8 9 12 13 12 10 11 14 19 18 17 19 24 27 30 34 32 28 37 38 37 36
14 12 10 11 12 16 17 20 16 11 8 7 4 1 3 4 3 4 5 6 6 8 7 11 10 12 11 15 20 20 16 13 17 21 22 29 33 29 28 38 37 37 34
12 10 10 10 15 16 18 16 13 10 9 7 4 2 3 3 3 4 4 5 7 8 6 9 16 13 13 19 24 24 21 17 17 18 19 24 24 23 33 34 36 34 32
11 9 11 10 14 14 16 14 13 10 9 7 5 2 1 2 3 4 3 6 8 9 10 11 11 14 15 19 25 25 27 24 21 21 20 18 20 27 35 34 32 26 24
9 12 11 11 14 13 13 14 10 8 8 7 6 4 1 3 4 5 5 6 8 8 12 15 16 14 19 21 24 25 24 24 21 21 23 29 33 33 31 26 22 16 17
10 12 12 13 15 12 10 10 7 6 7 8 7 5 4 5 6 6 6 6 8 13 19 20 19 15 19 21 21 21 23 21 26 32 33 34 35 31 26 21 19 18 16
12 12 14 14 13 11 7 7 5 6 7 8 9 7 7 7 8 8 7 9 10 17 20 19 17 17 18 19 20 21 23 27 33 37 34 31 28 25 22 16 19 20 14
13 14 15 14 12 9 7 4 4 5 6 6 8 9 8 10 11 11 9 12 14 18 21 19 18 19 18 20 20 23 25 28 34 32 28 26 24 21 21 21 22 20 13
15 14 13 12 10 8 7 6 7 9 7 5 6 8 10 10 11 11 8 14 17 19 22 22 22 23 23 23 24 24 28 26 22 26 22 24 21 19 18 19 15 17 15
17 15 13 11 9 7 7 10 11 11 10 8 8 9 9 10 11 12 10 13 17 19 21 22 23 24 25 23 21 21 20 21 20 20 20 20 21 20 19 20 16 15 14
17 14 15 12 9 8 9 12 10 11 9 9 8 9 10 11 11 11 12 13 18 18 18 20 21 22 23 22 21 22 19 18 19 17 19 20 21 20 22 16 15 14 14
17 13 13 12 12 9 9 12 9 9 7 7 8 9 10 11 10 12 14 15 18 19 18 18 18 19 20 21 21 19 16 18 20 18 18 19 20 19 19 17 16 16 15
19 15 15 13 13 11 9 10 10 9 5 6 9 9 11 12 11 11 12 12 15 17 18 19 19 17 15 15 17 20 21 19 21 22 21 20 21 21 19 18 17 18 18
19 15 13 13 14 14 12 10 11 10 6 7 8 7 8 11 11 11 12 13 14 12 12 13 13 16 17 18 19 22 23 23 21 20 20 22 21 20 19 19 19 18 19
19 17 15 13 12 14 15 14 11 10 9 6 5 4 3 4 6 8 9 11 12 13 13 13 13 12 12 13 15 20 21 22 23 23 22 23 23 23 23 21 21 21 22
20 18 16 14 14 13 13 14 14 11 9 8 8 6 5 4 4 4 4 6 10 12 13 14 14 13 13 15 16 17 19 21 23 25 28 28 28 29 28 26 25 25 24
16 17 14 14 13 13 11 11 12 13 11 10 10 9 7 6 6 5 6 6 7 7 10 13 16 18 18 18 19 19 21 23 24 26 27 28 28 27 27 28 28 28 28
12 15 16 15 13 10 8 7 6 9 9 7 8 11 11 11 11 12 12 13 14 14 15 15 15 16 18 20 22 24 25 24 24 25 26 27 29 30 33 32 31 32 33
15 12 14 14 12 11 10 8 7 7 7 8 9 9 9 11 11 11 11 12 13 14 16 17 19 20 22 24 26 26 27 28 28 29 30 32 34 34 32 32 34 36 37
16 14 14 14 14 13 11 10 9 8 8 8 9 10 10 9 9 11 11 12 12 12 13 13 14 15 16 17 19 22 24 27 29 30 32 34 32 33 34 37 39 41 40